Location: Baix
(44.7118°N, 4.7648°E)
Time: 16:41:30
(UTC+00:00)

Resurs 1-4 Rocket - Pass Details

Date: 07 August 2020
Orbit: 799 x 815 km, 98.6° (Epoch: 22 September)

Event Time Altitude Azimuth Distance (km) Brightness Sun altitude
Rises 01:30:53 0° 12° (NNE) 3,333 6.6 -24.5°
Reaches altitude 10° 01:33:14 10° 12° (NNE) 2,395 5.5 -24.3°
Maximum altitude 01:38:32 79° 286° (WNW) 823 2.0 -23.9°
Enters shadow 01:39:24 62° 218° (SW) 902 2.0 -23.8°
